Regional Weather Roundup
Issued by NWS Charleston, WV

Home | Current Version | Previous Version | Text Only | Print | Product List | Glossary Off
Versions: 1 2 3 4 5 6 7 8 9 10 11 12 13 14 15 16 17 18 19 20 21 22 23 24 25 26 27 28 29 30 31 32 33 34 35 36 37 38 39 40 41 42 43 44 45 46 47 48 49 50

000
ASUS41 KRLX 191510
RWRRLX
West Virginia Regional Weather Roundup
National Weather Service Charleston WV
1100 AM EDT FRI SEP 19 2014

Note: "fair" indicates few or no clouds below 12,000 feet with no
significant weather and/or obstructions to visibility.

WVZ003-191600-
Northern Panhandle of West Virginia

CITY           SKY/WX    TMP DP  RH WIND       PRES   REMARKS
WHEELING       SUNNY     62  51  67 NE7       30.23R
$$

WVZ009-191600-
Northwest West Virginia

CITY           SKY/WX    TMP DP  RH WIND       PRES   REMARKS
PARKERSBURG    SUNNY     64  52  64 NE7       30.22S
$$

WVZ006-191600-
Western West Virginia

CITY           SKY/WX    TMP DP  RH WIND       PRES   REMARKS
HUNTINGTON     SUNNY     63  53  70 NE5       30.16S
$$

WVZ015-191600-
West Central West Virginia

CITY           SKY/WX    TMP DP  RH WIND       PRES   REMARKS
CHARLESTON     MOSUNNY   64  55  72 N3        30.16S
$$

WVZ031-191600-
North Central West Virginia

CITY           SKY/WX    TMP DP  RH WIND       PRES   REMARKS
CLARKSBURG     SUNNY     64  53  67 VRB3      30.19F
MORGANTOWN     SUNNY     66  49  54 E6        30.22S
$$

WVZ035-042-045-191600-
South Central West Virginia

CITY           SKY/WX    TMP DP  RH WIND       PRES   REMARKS
BECKLEY        MOSUNNY   65  57  75 SE10      30.21R
BLUEFIELD      CLOUDY    64  57  78 VRB3      30.23R
LEWISBURG      PTSUNNY   64  54  69 E5        30.24R
$$

WVZ047-191600-
Northern Mountains of West Virginia

CITY           SKY/WX    TMP DP  RH WIND       PRES   REMARKS
ELKINS         PTSUNNY   64  54  69 CALM      30.23S
$$

WVZ052-191600-
Eastern Panhandle of West Virginia

CITY           SKY/WX    TMP DP  RH WIND       PRES   REMARKS
MARTINSBURG    PTSUNNY   65  50  58 E7        30.28S
PETERSBURG     CLOUDY    62  47  60 CALM      30.28S
$$


USA.gov is the U.S. government's official web portal to all federal, state and local government web resources and services.